Wind_Speed
67 65 62 58 56 54 52 50 47 41 38 36 32 32 34 36 39 40 38 38 38 36 34 34 36 39 39 36 34 36 34 32 31 28 26 27 29 28 28 31 33 33 34 35 36 38 40 44 46 47 46 45 43 40 37 34 34 32 32 32 32 33 34 33 32 32 33 33 32 32 30 27 24 22 21 21 21 21 18 16 15 15 17 19 20
64 61 58 55 53 51 47 45 41 36 35 34 30 31 33 36 39 40 39 38 38 36 34 35 37 39 40 38 35 36 34 31 30 27 26 27 29 29 30 32 32 32 33 34 36 38 40 42 45 46 46 46 44 42 40 36 34 32 31 31 31 32 33 33 32 33 33 33 32 33 31 28 25 23 21 21 21 21 19 16 16 17 18 19 20
61 57 53 49 49 46 40 39 37 33 32 32 31 31 31 33 37 39 39 39 38 36 34 36 37 39 40 39 37 37 34 31 29 26 27 29 29 30 31 32 32 31 33 34 36 38 39 41 43 44 45 46 45 43 42 39 36 34 33 31 31 31 31 31 32 32 32 31 31 32 31 29 28 25 22 22 21 20 19 18 18 18 18 20 20
55 52 48 44 44 40 36 34 33 31 30 30 32 32 31 31 34 37 39 40 38 36 35 37 38 38 39 39 37 37 35 32 30 30 30 30 30 31 32 33 32 31 32 34 36 38 38 39 41 44 45 46 45 44 42 42 40 38 36 35 33 32 31 31 32 32 30 30 30 30 30 28 27 25 24 24 23 22 21 20 21 20 19 20 20
50 47 43 41 39 35 34 32 32 32 30 29 31 31 31 31 31 34 36 38 38 37 37 38 39 38 38 38 37 36 35 33 31 31 30 30 30 31 31 32 32 32 33 34 35 36 36 37 39 43 45 45 46 45 43 42 42 42 41 39 38 35 33 31 32 32 30 29 29 29 29 27 26 25 25 26 26 25 23 22 22 22 20 21 21
45 41 38 36 33 31 31 31 32 33 29 29 31 30 29 27 29 32 34 37 38 38 38 39 40 39 37 36 35 34 33 33 31 30 29 28 28 29 30 31 31 32 33 34 35 35 34 34 36 40 43 45 47 47 45 42 42 44 45 44 42 40 37 34 32 32 31 29 29 29 28 27 26 26 26 27 28 28 27 25 24 23 22 22 23
40 36 33 31 29 28 29 31 31 31 30 31 30 27 26 25 26 29 32 35 37 39 40 40 40 41 39 36 34 33 33 34 33 31 30 27 25 26 28 30 31 32 33 34 34 34 32 31 33 36 40 44 46 47 46 43 42 43 44 45 44 42 40 38 35 32 32 30 29 28 28 27 26 27 27 27 29 30 30 28 26 25 25 24 24
36 32 29 28 26 26 29 30 30 32 33 32 30 28 27 27 29 30 30 32 35 37 38 37 38 40 40 38 36 34 34 35 35 34 32 29 27 26 26 27 29 32 34 34 34 33 31 30 30 33 37 41 44 46 46 44 43 42 42 42 42 40 39 39 37 34 32 31 30 28 27 26 26 27 28 28 29 31 32 31 29 27 27 27 26
32 29 27 26 25 27 29 29 30 33 33 32 31 31 30 28 30 31 30 30 32 34 35 35 34 36 38 37 37 36 35 36 36 37 36 33 30 28 26 25 25 28 30 31 32 32 30 29 29 30 34 38 41 44 45 44 43 42 41 39 39 38 36 37 37 35 33 32 31 29 27 26 27 28 29 30 30 31 32 33 32 30 30 30 29
29 27 26 25 26 28 28 28 29 32 33 31 33 33 29 27 27 28 29 29 29 31 34 34 32 33 35 34 34 35 37 37 38 40 40 37 33 30 27 26 25 25 26 28 30 31 31 30 30 31 33 36 40 42 43 44 43 42 41 39 38 37 36 36 35 34 34 33 31 29 28 28 28 29 30 31 31 31 32 31 31 32 33 33 32
27 26 26 26 28 29 28 27 28 32 32 29 32 33 28 28 27 24 27 29 28 28 30 32 32 31 32 32 32 33 35 37 37 38 40 39 35 32 30 28 26 26 27 29 31 31 31 30 31 31 33 35 38 42 44 45 45 44 43 41 39 38 37 36 34 34 34 34 32 31 30 29 29 28 28 29 29 29 28 26 27 30 33 35 35
26 27 27 27 28 30 30 31 31 34 33 30 32 33 32 33 30 25 27 29 29 28 27 28 31 30 29 30 31 32 33 34 34 36 39 40 37 35 34 32 29 28 28 31 32 32 30 30 31 32 32 34 37 40 43 46 47 47 47 45 43 41 39 38 36 35 35 34 34 32 32 31 29 28 28 28 28 28 27 27 27 27 30 33 35
26 27 28 28 29 30 32 33 33 33 34 33 32 34 36 38 34 28 28 31 31 30 28 28 30 31 30 30 32 32 32 33 35 36 38 40 39 37 36 36 34 33 33 35 35 34 32 32 31 31 31 33 35 38 41 44 46 48 50 49 48 45 42 41 39 38 37 36 36 34 34 32 31 30 30 31 31 30 29 29 30 29 29 31 34
26 27 28 29 30 31 32 33 33 33 34 35 34 35 38 39 36 31 29 33 34 32 31 30 31 32 32 33 33 33 34 35 36 37 37 39 41 38 37 38 39 39 39 40 40 38 36 35 33 32 31 31 33 35 37 40 42 45 48 50 50 49 46 44 42 41 39 38 37 36 35 34 33 32 33 33 33 33 32 31 32 32 32 33 34
25 26 28 29 31 32 33 34 34 34 34 35 36 36 38 38 36 32 30 33 35 34 34 34 33 34 34 34 35 35 36 37 37 38 37 38 40 39 38 39 41 42 42 43 42 39 38 37 36 34 33 32 31 31 33 35 37 40 43 47 49 50 48 46 43 42 42 41 39 38 36 35 34 34 34 35 35 34 34 33 33 33 34 35 32
25 26 28 30 31 32 34 35 35 35 34 35 38 39 39 40 38 35 33 34 35 35 36 37 37 36 36 36 37 37 38 39 38 38 38 37 38 40 39 39 40 42 43 43 42 40 39 38 37 37 36 35 33 31 30 31 33 35 38 41 45 47 48 46 44 42 42 42 41 39 37 35 35 35 35 35 35 35 34 33 33 34 33 32 29
25 27 28 30 32 33 34 35 36 36 35 35 39 42 42 42 41 39 36 37 37 36 37 40 40 39 39 39 40 39 39 40 39 38 39 37 37 40 40 40 40 41 42 43 42 40 40 39 38 38 38 38 37 34 31 29 29 30 32 36 40 44 47 47 46 44 43 42 42 41 39 37 37 36 35 35 34 34 34 34 34 32 30 28 26
27 28 29 31 33 34 35 35 36 36 35 35 38 43 45 45 45 43 40 40 41 39 39 41 41 41 42 44 44 42 41 41 39 38 39 39 38 39 41 42 42 43 44 44 44 42 41 40 39 39 40 40 40 38 33 29 28 28 29 31 34 39 44 47 48 47 46 44 43 43 42 41 40 40 38 37 36 35 34 35 34 31 30 29 29
28 29 30 32 34 34 35 35 35 35 35 34 37 43 48 48 47 46 44 43 43 41 41 42 43 41 43 46 47 45 43 42 41 40 40 40 41 41 43 45 45 46 46 46 44 43 43 42 40 41 43 42 42 40 35 31 28 28 28 27 28 30 35 41 46 48 49 48 47 46 46 45 45 45 44 43 42 40 38 37 36 33 31 31 31
29 30 30 32 34 35 35 35 35 34 35 34 35 41 47 49 49 49 47 46 46 44 42 43 43 42 43 46 48 47 47 45 42 41 41 41 42 44 45 47 48 49 49 48 46 44 44 43 42 41 42 41 39 37 36 33 30 30 29 29 28 27 27 30 36 41 44 47 48 49 48 48 48 48 48 47 45 43 42 41 39 37 34 32 32
30 30 31 33 34 35 35 35 35 35 35 35 35 38 45 49 50 50 50 50 49 47 45 45 45 44 43 45 46 47 47 47 45 43 42 43 43 45 46 47 48 48 49 50 50 47 46 45 43 42 41 40 38 37 37 35 33 32 31 31 31 29 27 27 29 32 35 38 42 44 45 46 47 48 47 47 46 44 43 43 43 42 40 39 37
30 31 32 33 35 35 36 35 35 36 36 36 36 37 41 47 50 51 51 53 53 51 48 46 46 46 45 45 46 46 45 45 45 45 45 45 45 46 46 47 46 47 48 50 50 49 48 47 45 44 43 42 42 41 39 38 36 34 33 33 32 31 30 29 28 29 30 32 35 37 39 40 42 44 44 44 45 44 44 43 44 44 44 44 43
30 32 32 33 35 36 36 36 36 36 36 36 37 38 40 44 49 52 53 54 56 56 53 50 49 50 49 47 46 48 47 44 43 44 46 47 48 48 48 48 48 48 48 49 49 48 47 47 46 45 46 46 45 44 43 41 39 37 36 35 34 33 32 31 29 28 29 30 32 33 33 33 35 37 39 39 40 41 43 43 44 44 45 45 45
30 32 33 34 35 36 37 37 37 37 37 37 38 38 39 42 46 50 53 55 56 58 58 55 51 51 54 53 50 49 51 49 46 44 45 47 49 50 50 50 50 50 49 49 49 48 46 47 47 46 47 48 48 47 47 46 44 42 40 39 37 35 34 33 32 30 29 29 30 31 31 30 30 31 32 32 33 34 36 38 39 41 44 45 46
31 32 33 35 36 37 38 38 38 38 38 38 39 39 40 41 44 47 51 54 56 58 60 60 56 52 52 55 56 54 53 54 52 49 47 47 49 51 52 52 52 52 52 51 51 50 49 48 48 48 49 50 50 49 50 49 48 46 44 43 42 40 38 36 35 33 31 29 29 29 30 30 29 28 28 28 29 29 31 32 33 35 38 41 43
33 33 34 35 37 38 39 39 39 39 39 39 39 40 41 42 43 45 48 52 55 58 60 62 61 57 53 53 56 57 56 56 56 55 51 50 51 52 53 54 55 54 54 54 53 52 52 51 51 51 51 52 52 50 50 50 49 47 46 46 45 44 42 40 39 38 36 34 32 31 31 31 30 30 28 27 27 28 29 29 31 32 34 36 39
36 35 35 36 37 38 40 40 40 41 41 41 41 41 41 42 43 45 47 49 53 56 59 61 63 63 60 57 55 56 57 57 57 58 57 55 53 54 54 55 55 55 54 55 56 55 54 54 54 53 53 54 53 51 51 51 49 48 47 47 46 46 45 43 42 42 41 40 38 35 34 34 33 33 32 30 29 29 29 30 31 32 34 35 37
40 39 39 38 39 40 40 41 41 42 42 43 42 42 42 42 43 44 46 48 51 54 57 60 62 65 66 64 61 58 58 58 59 59 60 59 58 56 56 56 56 55 54 55 55 57 57 56 55 55 55 55 55 54 54 53 51 49 49 48 47 47 46 45 45 45 44 44 43 41 39 38 37 37 36 34 33 32 32 31 32 34 35 36 37
44 44 43 42 42 41 42 42 42 42 43 43 44 44 44 44 44 44 45 47 49 52 55 58 60 63 65 67 66 64 61 61 62 61 61 62 63 62 61 60 60 59 58 57 56 56 58 59 57 57 57 58 58 58 58 57 55 52 52 51 50 48 47 47 47 47 47 47 47 45 43 41 41 41 40 38 37 36 35 34 34 35 37 37 37
47 47 46 46 45 45 44 44 44 44 43 44 45 45 45 46 46 45 45 47 48 50 52 55 58 60 63 65 67 68 67 65 64 64 62 61 63 66 67 66 66 64 63 62 61 59 59 60 59 59 60 60 60 60 60 60 58 57 56 54 53 52 51 51 50 50 49 50 50 49 48 46 44 43 43 42 41 39 38 37 36 38 39 39 39
49 49 49 49 49 48 48 47 46 46 46 45 46 46 47 47 48 48 48 48 49 50 51 53 55 57 60 62 64 66 68 68 67 67 65 63 62 63 67 69 69 70 69 67 66 64 64 63 60 59 60 60 60 59 59 59 59 59 59 57 57 56 55 55 55 55 54 53 53 53 51 50 49 47 46 45 44 43 42 41 40 40 41 42 42
52 52 51 51 51 51 51 50 50 50 49 48 48 48 48 48 49 50 51 51 51 51 51 52 54 55 57 59 61 63 65 67 68 69 69 68 65 63 64 66 68 70 71 71 70 68 67 67 66 64 61 60 60 59 59 59 59 61 61 60 60 60 60 60 60 60 59 57 57 56 55 54 53 51 50 49 48 47 46 45 44 44 44 44 44
56 55 55 54 54 53 53 53 53 54 53 53 52 52 51 50 50 51 52 53 53 53 53 53 54 55 56 57 59 61 62 64 65 67 68 70 70 67 65 65 66 68 69 71 72 71 69 69 70 70 69 67 66 64 62 62 61 62 63 64 64 64 64 64 63 63 63 62 60 58 57 56 56 55 54 53 53 52 51 49 48 48 47 46 46
59 59 58 58 57 57 56 55 55 56 57 57 57 56 55 54 53 53 53 54 54 55 56 56 56 56 57 58 59 60 60 62 63 65 66 68 69 69 68 67 66 68 69 69 70 72 72 71 71 71 72 73 72 71 70 69 68 67 67 67 68 68 67 67 67 66 66 66 65 62 60 59 59 58 57 56 56 56 55 54 53 53 52 50 49
62 62 62 61 61 60 60 59 59 59 59 60 60 60 59 58 57 57 56 56 56 56 57 58 58 58 58 59 60 61 61 62 62 63 65 66 67 68 69 68 67 68 70 70 70 71 72 73 73 73 74 74 74 74 74 75 75 74 73 72 71 71 71 71 71 70 70 70 69 67 66 64 63 62 61 60 60 59 59 58 57 57 56 54 52
65 65 64 64 64 63 63 63 62 63 63 63 63 63 63 62 62 61 60 59 59 59 59 59 60 61 61 61 61 62 62 63 63 64 64 65 66 67 68 68 68 68 70 72 72 72 72 72 73 74 75 76 76 76 76 77 78 78 77 77 76 75 75 75 76 75 75 75 74 72 71 70 67 66 65 64 63 63 62 61 60 60 60 58 56
68 67 67 66 66 66 66 66 66 67 67 67 67 66 66 66 66 66 65 64 63 62 62 62 62 63 63 64 64 64 64 64 65 65 66 66 67 67 68 68 68 69 70 71 72 73 74 74 74 74 74 76 77 77 78 78 79 80 80 80 80 80 80 79 79 78 78 79 78 77 75 73 71 70 69 68 67 66 65 64 63 63 63 61 60
71 70 70 69 68 68 68 68 69 69 70 71 70 70 69 69 69 69 69 68 68 67 66 65 65 65 65 66 66 66 66 66 66 66 67 68 68 68 68 69 69 69 70 71 72 73 74 74 75 75 75 75 76 76 77 77 78 79 80 80 81 81 81 80 79 78 78 78 79 78 77 75 74 73 72 71 70 68 67 67 65 65 65 65 64
74 74 73 71 71 71 71 71 72 72 72 73 73 73 72 72 72 72 72 72 72 71 70 69 69 68 68 68 68 68 68 69 68 68 68 69 69 69 69 70 70 70 71 71 72 73 74 74 75 76 76 76 77 77 78 77 77 77 78 78 79 80 80 80 80 80 80 79 79 78 77 77 76 76 76 75 73 72 71 70 69 67 67 67 68
76 75 74 73 73 74 75 76 76 76 75 75 75 75 75 75 75 74 74 74 75 74 74 74 73 72 72 71 71 70 70 71 71 71 71 70 70 70 70 70 70 71 71 72 73 74 74 75 76 76 77 77 78 79 80 79 79 79 79 79 79 80 80 81 81 81 82 81 81 80 79 79 79 79 79 79 78 77 76 76 74 72 70 69 70
74 74 73 73 73 75 78 80 80 80 80 79 78 77 77 77 77 77 77 78 78 77 77 77 77 76 76 75 75 74 74 73 73 73 73 73 72 72 72 71 71 71 72 73 74 75 76 76 77 78 78 79 80 81 81 81 81 81 81 81 80 81 82 82 82 83 83 83 82 82 82 82 82 82 82 81 80 79 79 79 78 77 75 73 72
72 71 70 69 69 71 77 82 81 81 82 82 82 81 80 79 79 79 80 80 81 81 80 80 80 80 80 79 79 78 77 77 76 75 75 75 75 75 75 74 73 73 73 74 75 76 76 77 78 79 80 80 82 83 83 83 83 82 83 83 83 83 84 84 84 85 85 84 83 83 83 83 83 84 84 83 82 81 80 80 79 79 78 77 75
70 69 68 67 66 68 74 79 80 81 82 84 85 85 85 84 83 81 81 82 83 83 83 83 83 83 83 82 82 82 81 80 79 79 78 78 78 78 77 77 77 76 76 76 76 77 77 78 79 80 81 82 83 84 84 84 85 84 84 85 85 85 85 85 85 86 86 86 86 86 85 84 83 84 85 85 85 84 84 83 82 82 81 80 79
69 68 66 66 67 70 73 75 76 79 81 84 86 88 88 88 86 84 84 84 84 85 85 85 86 86 86 85 85 85 84 84 84 83 82 82 81 81 81 80 80 79 79 79 79 79 79 80 81 82 83 84 84 84 85 85 86 86 85 86 87 87 87 86 86 87 87 87 87 88 87 86 85 84 84 85 85 85 85 86 86 85 83 83 82
70 68 67 66 68 71 73 72 73 76 79 82 85 88 90 90 88 87 87 88 88 88 87 87 87 88 88 88 88 87 87 87 87 87 86 86 85 85 84 84 84 83 83 82 82 82 82 82 83 84 85 85 85 85 86 86 86 87 87 86 87 87 88 88 88 88 89 88 89 89 88 88 87 85 84 85 84 83 83 86 86 85 84 83 83
73 71 69 68 69 71 72 72 72 76 78 80 83 86 87 87 86 87 89 91 91 91 91 91 90 90 90 90 90 90 89 89 89 89 89 89 88 88 88 88 88 87 87 86 86 86 86 86 86 86 87 87 87 88 88 88 88 89 89 89 88 88 88 89 89 90 90 90 90 90 89 89 90 88 86 86 85 83 83 85 85 84 84 83 82
74 73 72 71 71 72 72 72 73 76 79 81 83 83 82 81 83 85 88 90 91 92 93 94 94 93 92 92 92 91 91 91 92 92 92 91 90 91 91 91 91 91 91 90 90 90 90 90 89 89 90 90 91 91 91 92 91 91 92 92 92 92 91 91 91 92 92 93 93 92 90 90 92 91 90 89 87 84 85 86 85 84 84 83 82
76 75 74 74 73 73 73 74 75 77 79 81 82 80 79 79 81 84 86 87 88 89 92 94 96 96 95 95 95 94 93 93 93 93 93 93 92 92 93 93 94 94 94 94 94 95 94 94 93 92 93 94 94 95 95 95 95 95 96 96 97 96 95 95 94 94 95 96 96 95 93 92 94 94 94 92 89 86 87 87 86 86 85 83 83
77 77 76 76 75 75 75 76 76 77 79 81 81 78 77 78 81 83 84 85 85 86 88 91 94 96 96 97 97 96 96 95 95 95 95 94 94 93 94 95 95 96 96 97 98 98 97 96 96 96 96 97 98 98 98 99 99 100 100 100 101 101 100 99 98 98 98 99 100 100 97 96 97 98 98 96 92 89 89 88 87 88 86 84 84
79 79 79 78 77 77 77 76 78 79 80 81 80 78 77 78 79 80 81 83 83 84 85 87 89 92 94 97 98 98 98 97 98 98 98 97 95 95 95 95 96 96 97 98 99 99 99 99 98 99 99 99 100 100 101 102 103 103 103 103 104 105 104 103 102 102 102 102 102 103 101 99 100 102 102 101 98 94 91 89 88 89 89 87 86
80 81 80 79 79 78 77 77 78 79 80 79 79 78 77 78 78 78 80 81 81 82 82 83 85 88 91 94 96 98 98 99 99 100 100 99 98 97 97 97 98 98 99 99 99 99 99 99 100 100 101 101 101 102 102 103 105 106 106 106 106 107 106 106 106 105 105 104 105 106 105 103 103 103 104 105 103 98 95 92 91 91 91 91 89
Wind_Direction
286 287 288 287 287 287 287 287 285 280 276 273 269 264 259 258 258 258 256 253 252 249 244 236 234 229 220 219 226 232 233 233 235 237 242 250 253 248 241 238 239 239 239 238 234 231 229 229 231 233 234 235 236 238 242 244 246 249 250 252 256 259 261 262 263 265 267 268 269 269 267 262 259 261 266 273 277 278 277 269 263 271 280 283 284
283 284 284 285 285 285 285 285 281 277 271 267 264 262 257 254 254 255 254 252 249 246 242 235 231 230 222 218 223 228 231 235 234 236 244 251 254 252 245 239 238 240 242 240 237 233 230 228 228 231 232 234 236 239 242 243 243 245 248 252 256 259 261 262 262 263 265 266 267 270 270 266 262 261 265 271 275 275 274 270 271 275 277 277 278
279 279 280 282 283 282 281 280 277 272 265 260 260 262 258 250 250 252 251 250 246 241 241 237 231 229 224 219 222 225 228 234 237 242 249 250 252 253 246 240 238 240 242 242 240 236 233 229 227 229 231 232 234 238 241 242 242 242 245 249 255 259 261 261 261 262 263 263 265 269 270 269 265 261 261 267 271 272 270 270 273 274 271 270 271
275 275 275 274 274 274 273 273 272 264 258 257 257 260 260 253 251 250 248 247 241 235 237 238 233 230 226 222 225 227 225 230 238 245 247 248 251 250 243 239 238 240 242 242 240 238 235 231 227 228 230 231 233 236 240 242 242 243 245 247 250 255 259 261 262 262 261 261 264 267 269 268 265 261 260 263 266 267 266 266 271 272 267 264 265
272 272 271 268 266 266 264 263 259 253 252 253 251 254 261 260 256 250 247 245 238 231 233 237 234 230 228 226 226 229 229 229 233 239 244 250 254 248 240 238 238 239 241 241 240 239 237 232 228 228 229 230 231 234 237 241 243 245 247 249 251 253 257 260 262 261 260 261 263 266 266 264 261 261 262 262 262 262 262 263 266 267 263 259 260
270 269 267 265 262 256 253 251 248 245 243 243 243 248 256 259 258 252 245 243 239 231 230 235 235 230 227 227 226 227 230 232 233 236 245 254 256 248 240 238 238 238 240 241 240 239 237 234 231 230 230 230 231 233 235 239 242 245 248 250 253 254 255 258 261 260 260 262 264 264 263 260 258 262 265 265 261 259 259 260 261 263 260 255 255
267 266 263 259 254 246 240 241 240 237 233 234 237 243 249 250 250 248 243 241 239 234 231 232 235 232 227 226 226 226 227 232 237 238 241 249 254 251 246 241 239 239 240 241 240 239 238 237 236 233 231 231 232 233 235 237 240 244 249 252 255 257 256 257 259 259 259 262 264 263 261 258 258 262 266 266 262 257 256 257 257 259 258 254 251
265 261 258 252 246 238 232 234 233 230 229 230 231 236 244 246 245 244 243 240 236 235 232 230 233 233 229 227 228 229 227 229 236 240 241 243 248 251 252 247 242 240 240 239 239 239 239 240 240 239 235 234 234 235 236 238 240 244 249 252 255 257 257 256 257 258 258 259 261 260 260 260 260 262 264 265 261 257 255 256 256 256 256 254 250
260 256 250 245 238 231 228 228 228 227 227 228 228 232 241 248 249 245 241 237 231 232 231 227 229 229 227 228 229 231 230 228 231 236 240 242 242 243 247 248 245 241 240 240 239 238 239 239 240 240 239 237 237 237 238 239 241 243 246 249 252 254 255 254 255 255 254 255 257 258 259 261 261 261 263 262 260 257 257 258 258 257 256 255 253
255 251 244 237 232 227 224 224 227 226 225 225 224 228 238 245 247 244 237 232 225 227 231 228 229 229 226 227 229 232 232 230 230 232 235 238 238 237 238 241 241 239 239 239 239 238 237 237 238 239 238 238 238 239 240 240 240 241 243 246 249 251 252 252 252 251 250 250 252 254 256 259 260 260 261 260 257 256 258 260 261 259 257 255 256
249 247 241 234 228 224 219 220 226 227 225 221 218 222 232 237 240 239 234 227 217 221 230 228 227 228 226 227 230 234 236 236 235 233 231 232 235 236 234 232 233 236 239 239 239 239 238 238 238 238 239 239 239 239 240 239 239 239 242 245 248 249 250 249 249 248 247 248 249 252 254 256 258 259 258 256 254 255 257 259 261 261 259 257 258
244 242 239 233 228 223 217 215 221 225 225 221 214 216 225 231 234 234 229 220 211 215 225 225 223 224 224 226 229 233 238 240 240 237 233 230 232 234 233 228 226 230 236 239 239 239 240 240 240 240 241 242 242 241 241 240 239 239 241 244 247 248 249 248 247 247 246 247 248 251 253 255 257 258 256 255 255 257 259 262 264 265 264 262 262
241 239 237 233 228 224 219 216 219 223 225 221 214 213 221 228 229 229 222 211 206 210 216 218 220 223 225 225 228 230 235 240 241 239 236 232 231 232 232 228 224 225 232 236 237 236 237 238 240 241 243 244 244 244 243 243 242 241 241 242 245 248 250 250 248 247 246 247 248 250 253 255 256 257 257 258 259 261 263 265 267 269 269 269 268
240 238 236 233 229 225 222 219 218 221 224 221 214 211 218 224 224 222 214 205 205 208 209 211 214 220 223 225 227 229 233 237 238 237 235 234 232 230 232 231 227 230 236 239 238 238 238 238 237 238 241 243 244 245 244 245 246 245 243 242 243 246 249 251 251 249 249 249 250 251 253 254 255 256 257 259 261 262 264 267 269 270 270 272 273
240 239 236 233 229 226 223 221 219 220 222 221 215 211 216 219 216 213 210 207 210 213 212 212 214 217 218 221 226 230 234 237 237 236 233 232 232 230 232 233 231 234 238 239 240 242 242 243 241 237 238 241 243 245 246 246 247 248 247 244 243 244 246 250 253 253 253 252 252 253 254 254 254 254 255 257 260 262 264 267 269 270 269 269 267
241 241 238 233 230 227 224 222 219 218 219 220 216 212 213 215 211 209 212 213 216 220 220 219 219 220 218 220 225 229 234 238 238 238 234 231 231 232 233 233 233 235 237 238 240 241 241 245 246 241 237 239 241 243 246 247 248 249 250 247 245 243 244 246 249 252 253 253 253 253 253 253 252 253 254 256 258 261 263 264 265 265 263 261 257
241 242 240 235 231 229 226 223 220 218 218 218 217 213 212 214 211 211 214 215 216 221 224 224 224 223 221 222 226 229 233 237 239 240 238 235 232 232 234 233 234 237 239 239 239 239 240 243 246 242 236 237 240 240 243 247 249 251 251 250 247 245 244 244 246 248 251 252 252 252 252 252 252 253 254 256 258 260 261 261 262 260 256 253 250
241 243 242 237 232 230 228 226 223 219 218 218 217 213 211 213 213 214 215 214 215 221 226 228 225 224 224 225 226 229 232 235 239 241 242 240 235 233 233 232 235 238 239 239 239 241 242 243 244 242 238 240 242 239 239 243 249 253 255 254 251 249 246 245 246 247 249 251 251 252 252 252 253 254 254 256 257 259 260 261 261 256 253 255 256
243 244 242 238 234 232 231 229 227 223 220 220 218 214 213 214 214 216 216 213 214 222 227 229 228 227 228 228 228 229 233 235 238 240 243 243 240 235 234 234 235 238 239 238 239 243 245 244 244 243 241 244 247 243 238 240 246 252 257 259 258 255 251 248 247 248 249 251 251 252 253 254 254 255 256 257 258 259 259 260 260 257 255 258 260
244 244 242 237 234 233 233 232 230 227 224 222 221 217 217 218 216 216 217 214 214 220 226 229 230 229 229 231 231 230 233 235 236 238 240 242 243 239 236 236 237 239 240 240 241 244 246 245 244 243 242 244 247 246 241 241 244 248 253 257 259 260 258 254 251 249 249 250 251 252 253 254 255 255 256 258 258 258 257 258 259 258 256 257 261
245 244 240 235 233 233 234 234 233 231 228 226 224 221 220 222 221 217 216 216 216 219 225 229 231 229 228 231 232 231 233 235 235 236 237 238 241 241 239 238 239 241 242 243 244 246 247 247 245 243 240 239 242 243 243 244 245 246 249 252 254 256 258 259 258 254 252 251 252 252 252 253 255 255 255 256 257 256 255 256 259 260 259 259 263
246 244 241 236 232 232 234 235 235 234 231 228 226 224 222 223 225 222 218 217 218 219 222 227 231 231 229 232 234 234 234 235 236 236 235 236 238 240 241 241 241 242 244 245 247 248 248 248 247 245 241 238 239 242 244 245 247 249 249 250 251 252 255 259 260 259 256 255 254 254 252 252 253 255 255 254 254 255 254 255 257 260 262 263 265
247 245 243 239 234 233 235 236 237 237 235 232 229 227 224 223 225 226 223 219 218 219 220 223 229 233 233 233 237 239 238 237 238 238 237 235 236 238 240 242 243 245 246 247 249 249 248 249 248 247 245 243 243 246 247 249 251 252 252 250 249 250 254 258 258 258 259 259 258 257 255 253 254 255 256 255 255 255 256 256 256 258 261 262 264
247 246 244 242 238 235 235 238 239 240 238 236 233 230 227 225 225 227 228 225 221 220 220 221 224 231 235 236 237 241 243 243 241 240 239 237 237 238 240 243 245 246 247 249 251 250 249 250 250 248 247 246 248 250 251 253 255 256 255 253 251 249 252 256 258 257 258 260 260 259 258 256 256 256 257 259 259 259 259 260 259 259 259 261 262
247 246 244 243 242 239 238 239 241 242 242 241 238 234 231 228 226 226 228 229 227 224 223 222 222 224 230 235 237 238 242 245 245 242 241 240 239 238 240 243 245 246 247 249 251 252 251 251 252 251 249 249 251 253 253 254 255 256 256 255 254 252 251 254 257 257 258 260 261 262 262 261 260 260 260 261 263 265 266 266 266 265 264 263 262
248 247 245 243 243 242 242 242 243 243 244 243 242 239 236 232 229 228 228 228 229 229 228 226 225 223 223 228 234 236 238 242 245 245 242 240 241 240 240 242 244 246 248 249 250 251 252 253 253 253 252 253 254 254 254 252 252 254 256 256 256 254 252 252 254 256 258 259 262 263 264 263 263 263 265 266 267 271 274 275 275 274 273 270 267
248 247 247 245 243 243 243 244 244 244 244 244 243 242 241 238 233 231 230 229 229 230 231 231 230 229 228 227 228 231 234 236 240 244 244 240 239 240 241 242 244 246 246 249 251 251 251 252 253 253 252 254 255 255 253 251 250 253 256 257 256 254 252 252 252 253 255 258 261 264 265 266 266 266 268 270 272 274 278 280 280 279 278 275 271
249 248 247 247 245 244 244 244 245 245 245 245 244 243 243 242 239 235 233 232 231 231 231 232 233 233 234 234 231 229 230 231 233 238 241 241 239 238 240 242 244 245 244 244 248 251 253 252 252 253 253 253 254 254 253 252 252 253 255 256 255 253 252 252 252 252 254 256 259 262 265 267 268 269 270 271 273 275 278 281 282 280 278 275 273
250 249 248 247 247 246 245 244 245 245 245 245 244 243 243 243 243 240 237 235 234 234 233 233 234 235 236 237 237 234 231 231 231 232 235 238 239 239 240 240 241 243 243 242 242 245 250 253 254 254 254 254 255 255 255 255 255 255 254 255 255 254 253 253 253 253 254 256 258 260 263 265 268 271 272 272 272 274 276 278 278 276 276 275 274
250 250 249 248 247 247 246 246 245 245 245 245 244 244 243 242 243 243 241 239 237 237 237 235 235 236 237 238 239 238 237 235 234 233 233 234 236 238 240 241 241 241 241 242 242 241 243 247 250 252 254 255 256 257 257 256 256 256 256 255 255 255 254 254 254 255 256 258 258 259 261 264 267 270 272 272 272 273 273 274 275 275 277 279 276
251 251 250 250 249 248 247 247 247 247 246 245 245 245 244 243 242 242 243 242 240 239 239 239 238 237 238 239 239 240 240 239 238 237 236 236 235 235 237 240 241 241 241 240 241 242 242 242 244 247 249 252 254 256 257 257 256 256 257 257 256 256 255 254 255 256 257 259 260 261 262 263 266 268 270 272 272 272 272 273 275 275 277 279 278
251 251 251 251 251 250 249 248 248 248 248 246 245 244 244 244 243 242 242 242 242 241 240 240 240 240 239 239 240 240 241 241 241 240 240 240 240 238 237 237 239 241 242 241 240 240 241 242 243 243 244 246 249 251 253 255 256 257 257 258 259 259 259 258 258 258 259 260 262 262 263 264 265 267 269 270 271 272 273 273 274 275 276 277 276
249 249 249 250 250 250 250 249 249 249 249 249 247 246 244 244 244 244 243 243 243 243 242 242 241 242 241 241 241 241 241 241 242 241 241 242 243 243 241 239 238 239 241 243 243 241 240 241 242 242 243 244 246 247 249 251 253 255 257 258 260 261 262 262 262 263 263 263 263 263 264 265 265 267 269 270 270 271 272 273 273 274 275 276 276
249 248 248 248 248 248 248 249 248 248 248 249 249 248 247 245 245 244 244 244 244 243 243 243 243 242 242 242 242 242 242 242 242 242 242 243 243 245 245 244 242 241 241 241 243 244 243 242 241 242 243 244 245 246 247 248 250 252 255 257 259 261 262 263 264 264 265 265 265 264 264 265 265 266 269 270 271 271 271 272 272 273 274 275 275
249 248 248 248 247 247 247 248 248 248 248 248 248 248 248 248 247 246 244 244 244 244 244 244 244 243 243 243 243 243 243 243 243 243 243 243 244 244 245 245 245 244 244 243 243 243 243 244 243 243 244 245 246 246 247 248 249 251 253 254 256 258 260 262 263 264 264 264 265 265 265 265 265 266 268 270 270 270 270 270 271 272 273 274 273
249 249 248 249 249 248 248 248 248 248 247 247 246 246 247 247 247 247 247 245 244 244 244 244 244 244 244 243 243 244 244 244 244 244 244 245 245 245 245 246 246 245 245 246 246 246 245 244 244 245 246 247 248 248 248 249 249 250 251 252 253 255 257 259 261 262 263 264 264 264 265 265 264 264 266 268 269 270 270 269 269 271 272 272 272
250 249 249 249 249 249 249 249 249 248 248 247 246 245 245 246 246 246 247 246 246 245 244 244 244 243 244 244 244 244 244 245 245 245 245 246 246 246 246 246 247 247 247 247 248 249 249 249 248 247 247 248 249 250 250 250 250 250 251 252 253 254 255 256 258 259 261 262 263 263 264 264 264 264 264 265 266 267 267 268 269 269 270 270 270
251 251 251 251 251 250 250 250 250 249 248 248 247 246 245 245 245 245 246 246 246 246 246 246 245 245 244 244 244 244 245 245 245 245 246 246 247 247 247 248 248 248 248 248 248 249 250 251 252 252 252 251 251 251 251 251 251 252 252 252 253 254 255 255 256 257 258 260 261 262 263 263 264 264 264 264 263 263 264 265 266 268 269 269 270
251 250 250 251 252 253 253 252 251 250 249 248 248 247 246 245 245 245 245 246 246 246 246 247 247 247 246 245 245 245 245 245 245 246 246 246 247 247 247 248 248 249 249 250 250 251 251 251 252 253 254 255 255 255 254 254 253 254 254 254 254 254 255 255 256 257 257 258 259 260 261 262 262 262 263 263 263 262 262 263 264 265 266 267 269
250 250 250 250 251 252 252 252 252 251 250 250 249 248 247 246 246 245 245 245 245 246 246 246 247 247 248 247 247 246 246 245 245 246 246 247 247 248 247 247 248 248 249 250 251 251 252 252 252 253 253 255 256 257 257 257 256 256 256 256 256 256 256 255 256 256 256 256 257 258 258 259 259 259 260 261 262 262 262 262 263 263 263 264 266
250 250 250 251 251 252 252 251 251 252 252 251 250 249 248 247 246 246 246 246 245 245 245 246 246 246 247 247 248 248 247 247 247 246 246 246 247 247 248 248 248 248 248 249 250 251 252 252 253 253 253 253 255 256 256 257 257 257 258 258 258 258 258 258 257 257 257 256 256 257 257 257 257 257 257 257 259 260 261 262 262 262 261 261 262
252 251 250 250 251 253 253 251 250 251 252 252 252 251 250 249 247 246 246 246 246 246 245 245 245 246 246 246 247 247 248 248 248 248 248 248 248 248 248 248 248 248 248 249 250 250 251 252 253 253 253 253 254 254 255 256 256 256 257 257 258 258 259 259 259 259 259 258 257 257 257 257 257 257 256 256 256 257 258 260 261 261 260 260 260
254 253 252 251 250 251 253 253 251 251 251 251 252 251 251 250 249 248 247 247 247 247 246 246 246 246 246 246 246 247 247 247 248 248 249 249 249 249 249 248 248 248 248 248 249 250 250 251 252 253 253 254 254 254 255 255 256 256 256 257 257 257 257 258 259 260 260 260 259 258 258 257 257 258 258 257 257 257 257 258 259 260 260 261 260
255 254 253 252 252 251 253 255 255 254 253 252 251 251 250 250 249 249 249 249 249 248 248 247 247 247 247 246 246 246 247 247 247 248 248 249 249 249 250 250 249 249 249 249 249 249 250 250 251 252 253 253 254 254 255 255 256 256 256 256 257 257 257 257 258 258 259 259 260 259 259 258 258 258 258 258 258 258 259 259 259 259 260 260 261
258 256 254 253 253 253 254 254 256 256 255 254 253 252 251 250 250 250 250 250 250 250 249 249 248 248 247 247 247 247 247 247 247 247 248 248 248 249 249 250 250 250 250 250 250 250 250 250 251 252 252 253 254 255 255 256 256 257 256 256 256 256 257 257 257 258 258 258 259 259 260 260 259 258 258 258 258 258 259 259 259 259 259 259 260
260 259 257 255 255 255 255 254 254 255 255 255 254 254 253 253 252 252 252 251 251 251 251 250 249 249 248 248 248 247 247 247 247 247 248 248 248 248 249 249 250 250 250 251 251 251 251 251 252 252 253 254 254 255 255 256 256 257 257 257 257 256 256 257 258 258 258 258 258 258 259 260 260 259 258 258 258 258 258 258 259 259 259 259 259
261 260 260 258 257 256 256 255 255 254 254 253 254 254 255 255 254 254 253 253 252 252 252 252 251 250 249 249 249 248 248 248 247 248 248 248 248 248 249 249 250 250 250 251 251 251 252 252 252 253 254 254 255 255 256 256 257 257 258 258 258 258 257 257 258 258 259 259 259 259 259 259 260 260 259 258 258 258 258 258 258 258 258 258 258
262 261 261 260 260 259 258 257 256 255 255 255 255 255 255 255 255 254 254 254 253 253 252 252 252 252 251 250 250 249 249 249 249 248 248 248 248 249 249 250 250 250 251 251 251 251 252 252 253 253 254 254 255 256 256 256 257 257 257 258 258 258 258 258 258 258 259 260 260 260 260 260 260 261 260 259 257 257 257 257 258 257 257 257 258
264 263 262 261 261 260 260 259 258 257 257 256 256 256 255 255 255 255 255 255 254 254 253 253 253 253 252 252 252 251 250 250 250 250 250 249 249 249 249 250 250 251 251 251 252 252 252 253 253 253 254 254 255 256 256 257 257 257 257 258 258 258 258 258 258 258 258 259 259 260 260 260 260 261 261 260 258 256 256 256 257 257 257 256 256
265 264 264 263 262 261 261 260 260 259 258 258 258 257 257 257 257 257 256 256 256 255 254 254 254 254 254 254 253 252 251 251 251 251 251 251 251 251 251 251 251 251 252 252 252 253 253 254 254 254 254 254 255 255 256 257 257 257 257 257 258 258 258 258 258 258 258 259 259 259 259 259 259 260 261 261 259 258 257 255 255 256 257 256 256
264 264 265 265 264 263 262 261 260 260 260 260 260 260 259 258 258 257 257 256 256 256 256 256 255 255 254 254 254 254 253 252 252 252 252 252 252 252 252 252 253 253 253 253 253 254 254 254 255 255 255 255 255 256 256 257 257 257 257 257 257 258 258 258 258 258 258 258 259 259 259 259 258 258 259 260 260 259 258 258 256 255 255 256 255
Height
10705 10705 10706 10706 10706 10706 10705 10705 10705 10705 10704 10703 10703 10704 10705 10707 10708 10709 10711 10712 10714 10716 10717 10719 10720 10721 10723 10726 10729 10731 10732 10734 10736 10737 10739 10740 10740 10741 10743 10745 10746 10748 10749 10751 10752 10754 10755 10757 10759 10760 10762 10764 10766 10768 10769 10770 10771 10771 10772 10773 10774 10775 10776 10777 10778 10779 10780 10781 10782 10783 10785 10786 10787 10788 10788 10789 10789 10790 10790 10790 10790 10790 10790 10790 10789
10700 10700 10700 10700 10699 10700 10700 10700 10700 10700 10700 10699 10699 10699 10700 10702 10703 10704 10707 10709 10710 10712 10714 10715 10717 10718 10720 10722 10725 10727 10730 10732 10733 10735 10736 10738 10738 10739 10740 10741 10743 10745 10746 10748 10749 10750 10751 10753 10755 10757 10759 10761 10763 10765 10766 10768 10769 10770 10770 10771 10772 10772 10773 10775 10776 10777 10777 10778 10779 10780 10781 10783 10784 10785 10786 10786 10787 10787 10788 10788 10788 10788 10788 10788 10788
10695 10694 10696 10698 10696 10695 10697 10697 10696 10695 10695 10695 10695 10696 10696 10697 10699 10700 10702 10705 10707 10709 10710 10712 10714 10715 10717 10718 10721 10724 10727 10729 10731 10732 10734 10735 10736 10736 10737 10738 10740 10742 10743 10745 10746 10747 10748 10750 10752 10754 10756 10758 10760 10762 10763 10765 10766 10767 10768 10769 10770 10770 10771 10772 10773 10774 10775 10776 10776 10777 10778 10780 10781 10782 10783 10784 10784 10785 10786 10786 10786 10786 10786 10786 10786
10688 10689 10690 10693 10692 10690 10691 10693 10693 10691 10691 10692 10693 10692 10692 10694 10695 10696 10698 10701 10704 10706 10707 10709 10711 10712 10714 10716 10718 10721 10723 10725 10728 10730 10731 10732 10733 10733 10734 10735 10737 10739 10741 10742 10744 10745 10746 10747 10749 10751 10752 10754 10757 10759 10760 10762 10763 10765 10765 10766 10767 10768 10769 10770 10770 10771 10772 10773 10774 10774 10775 10776 10777 10779 10780 10781 10782 10782 10783 10783 10783 10784 10784 10784 10784
10680 10682 10683 10685 10686 10685 10685 10688 10689 10687 10688 10690 10691 10690 10690 10691 10692 10693 10695 10697 10701 10703 10704 10705 10707 10710 10711 10713 10715 10718 10720 10722 10724 10726 10728 10729 10729 10730 10731 10732 10734 10736 10738 10740 10741 10743 10744 10745 10746 10747 10749 10751 10753 10755 10757 10759 10760 10761 10762 10763 10764 10766 10767 10767 10768 10768 10769 10770 10771 10772 10772 10773 10774 10776 10777 10778 10779 10779 10780 10780 10781 10781 10781 10781 10781
10673 10675 10676 10677 10679 10680 10680 10682 10683 10684 10686 10687 10688 10688 10689 10690 10690 10690 10692 10694 10697 10700 10701 10703 10705 10707 10709 10710 10712 10715 10717 10718 10721 10723 10725 10726 10726 10727 10728 10730 10732 10734 10735 10737 10739 10740 10742 10742 10743 10744 10746 10748 10749 10751 10753 10755 10757 10758 10759 10760 10762 10763 10764 10765 10766 10766 10766 10767 10768 10769 10770 10771 10772 10773 10774 10774 10775 10776 10777 10777 10778 10778 10778 10778 10779
10667 10669 10670 10671 10674 10675 10675 10676 10679 10681 10683 10684 10686 10687 10688 10689 10688 10687 10689 10691 10694 10696 10699 10700 10702 10704 10706 10707 10709 10712 10714 10716 10718 10720 10722 10723 10724 10725 10726 10728 10729 10731 10733 10735 10736 10738 10739 10740 10740 10741 10743 10744 10746 10748 10750 10752 10754 10755 10756 10758 10759 10760 10762 10763 10763 10763 10764 10764 10765 10766 10767 10768 10769 10770 10771 10771 10772 10772 10773 10774 10774 10775 10775 10776 10776
10661 10663 10664 10666 10668 10670 10671 10672 10675 10677 10679 10682 10684 10685 10685 10686 10685 10684 10686 10688 10690 10693 10696 10697 10698 10701 10703 10704 10707 10709 10712 10713 10715 10717 10719 10720 10722 10723 10724 10725 10727 10728 10730 10732 10734 10735 10736 10737 10738 10739 10740 10741 10743 10745 10747 10749 10751 10753 10754 10755 10756 10757 10758 10759 10760 10761 10761 10761 10762 10763 10764 10765 10766 10766 10767 10768 10768 10769 10769 10770 10771 10771 10772 10772 10773
10655 10657 10659 10661 10663 10665 10667 10669 10671 10672 10675 10679 10681 10681 10681 10682 10682 10682 10684 10685 10687 10690 10692 10694 10695 10697 10699 10702 10704 10706 10708 10711 10712 10714 10715 10716 10718 10720 10721 10723 10725 10726 10728 10730 10732 10733 10734 10734 10735 10736 10738 10739 10741 10742 10744 10746 10748 10750 10751 10752 10753 10754 10755 10756 10757 10758 10758 10758 10759 10760 10761 10762 10762 10763 10764 10765 10765 10765 10766 10767 10768 10768 10769 10769 10770
10650 10652 10654 10657 10659 10661 10663 10667 10668 10669 10672 10675 10676 10677 10678 10678 10678 10680 10681 10683 10685 10686 10688 10690 10692 10694 10696 10699 10701 10703 10705 10706 10708 10710 10711 10712 10714 10716 10718 10720 10722 10724 10725 10727 10729 10730 10731 10731 10732 10733 10734 10736 10738 10739 10741 10743 10745 10746 10748 10749 10750 10750 10751 10752 10753 10754 10755 10755 10756 10756 10757 10758 10759 10759 10760 10761 10762 10762 10763 10764 10764 10765 10765 10766 10766
10645 10647 10649 10652 10654 10656 10660 10664 10665 10665 10667 10670 10672 10673 10674 10674 10675 10677 10679 10680 10682 10683 10685 10687 10689 10691 10693 10696 10698 10699 10700 10702 10704 10706 10707 10709 10711 10713 10715 10716 10719 10721 10723 10724 10726 10727 10728 10729 10729 10730 10731 10732 10734 10735 10737 10738 10740 10742 10744 10745 10746 10747 10748 10748 10749 10750 10751 10752 10753 10753 10754 10754 10755 10756 10757 10758 10758 10759 10760 10761 10761 10762 10762 10762 10763
10641 10643 10645 10647 10649 10652 10655 10658 10659 10660 10662 10664 10666 10668 10669 10670 10672 10675 10676 10677 10679 10680 10682 10684 10686 10687 10690 10692 10693 10695 10696 10698 10700 10701 10703 10706 10707 10709 10711 10713 10715 10718 10719 10721 10723 10724 10725 10726 10726 10727 10728 10729 10730 10731 10732 10734 10736 10737 10739 10740 10742 10743 10744 10745 10746 10747 10748 10749 10750 10750 10750 10751 10752 10753 10754 10755 10755 10756 10757 10758 10758 10759 10759 10759 10759
10638 10639 10641 10643 10645 10647 10650 10652 10654 10655 10656 10658 10661 10663 10664 10665 10668 10670 10672 10673 10675 10677 10679 10680 10682 10684 10686 10687 10688 10690 10693 10694 10696 10697 10699 10702 10703 10705 10707 10710 10712 10713 10715 10717 10719 10720 10722 10722 10723 10724 10725 10726 10726 10727 10729 10730 10731 10733 10734 10736 10738 10739 10740 10741 10742 10743 10744 10745 10746 10747 10748 10748 10749 10750 10751 10752 10752 10753 10754 10755 10755 10755 10756 10756 10756
10635 10636 10637 10639 10641 10642 10645 10647 10649 10650 10651 10653 10656 10658 10659 10661 10664 10665 10667 10669 10671 10673 10675 10676 10678 10680 10682 10683 10684 10686 10688 10690 10691 10693 10695 10697 10699 10702 10704 10706 10708 10710 10711 10713 10714 10716 10718 10718 10719 10720 10721 10722 10723 10724 10725 10727 10728 10729 10730 10731 10733 10735 10736 10738 10739 10740 10741 10742 10743 10744 10745 10745 10746 10747 10747 10748 10749 10750 10751 10751 10752 10752 10752 10752 10752
10631 10632 10634 10635 10636 10638 10640 10642 10644 10645 10646 10648 10650 10652 10654 10656 10659 10660 10662 10663 10666 10668 10670 10672 10674 10675 10677 10679 10680 10682 10683 10684 10687 10689 10691 10693 10695 10699 10701 10703 10705 10707 10708 10709 10710 10712 10714 10715 10716 10717 10718 10719 10720 10721 10722 10723 10724 10725 10726 10727 10729 10731 10733 10734 10735 10737 10738 10739 10740 10741 10742 10742 10743 10743 10744 10744 10745 10746 10747 10748 10748 10748 10748 10748 10748
10628 10629 10630 10631 10632 10633 10635 10637 10639 10640 10642 10643 10645 10647 10650 10652 10654 10656 10657 10659 10661 10663 10665 10667 10668 10670 10673 10675 10676 10678 10679 10680 10682 10684 10687 10689 10692 10694 10697 10699 10702 10703 10704 10705 10707 10709 10710 10711 10713 10714 10715 10715 10717 10718 10719 10720 10721 10721 10722 10723 10725 10726 10728 10730 10732 10733 10734 10735 10736 10737 10738 10739 10739 10740 10740 10741 10742 10742 10743 10744 10744 10744 10744 10744 10744
10625 10625 10626 10627 10628 10629 10631 10632 10634 10636 10637 10639 10640 10643 10645 10647 10650 10652 10654 10655 10657 10658 10660 10661 10663 10666 10668 10670 10672 10674 10675 10676 10678 10680 10682 10685 10688 10691 10693 10695 10698 10700 10701 10702 10703 10704 10706 10708 10709 10710 10711 10712 10713 10715 10716 10716 10717 10718 10719 10720 10721 10722 10724 10725 10727 10728 10729 10730 10731 10733 10734 10735 10735 10736 10736 10737 10738 10738 10739 10740 10740 10740 10740 10741 10741
10621 10622 10622 10623 10624 10625 10626 10628 10630 10631 10633 10634 10636 10638 10640 10642 10645 10647 10649 10651 10653 10654 10655 10656 10658 10661 10663 10665 10667 10669 10671 10673 10675 10676 10678 10680 10684 10687 10688 10690 10693 10694 10696 10697 10698 10700 10701 10703 10705 10706 10707 10708 10709 10711 10712 10713 10714 10715 10716 10716 10717 10718 10719 10721 10722 10724 10725 10726 10727 10728 10729 10730 10731 10731 10732 10733 10734 10734 10735 10736 10736 10737 10737 10738 10738
10618 10618 10619 10619 10620 10621 10622 10623 10625 10627 10629 10630 10631 10633 10635 10637 10639 10642 10644 10647 10648 10649 10650 10651 10654 10657 10658 10660 10662 10665 10668 10670 10671 10673 10675 10676 10679 10681 10683 10686 10688 10689 10690 10692 10694 10695 10697 10699 10701 10703 10704 10705 10706 10707 10708 10709 10711 10712 10713 10713 10714 10714 10715 10716 10717 10719 10720 10721 10722 10723 10724 10725 10726 10726 10727 10728 10729 10730 10731 10732 10733 10733 10734 10734 10735
10614 10615 10615 10615 10616 10617 10618 10619 10621 10622 10624 10626 10627 10628 10630 10631 10634 10636 10639 10642 10644 10645 10646 10647 10650 10652 10654 10655 10658 10661 10664 10666 10668 10669 10671 10672 10674 10677 10679 10681 10683 10684 10686 10688 10690 10691 10693 10695 10697 10699 10700 10702 10703 10704 10705 10706 10707 10708 10709 10710 10711 10711 10711 10711 10712 10714 10715 10716 10717 10718 10719 10720 10720 10721 10722 10723 10725 10726 10727 10728 10729 10729 10730 10731 10731
10610 10611 10611 10611 10612 10613 10614 10615 10616 10618 10619 10621 10623 10624 10625 10626 10628 10631 10634 10637 10639 10641 10642 10643 10645 10647 10649 10651 10653 10657 10659 10661 10664 10666 10667 10668 10670 10671 10674 10677 10678 10681 10682 10683 10686 10688 10689 10691 10693 10694 10696 10698 10699 10700 10702 10703 10704 10705 10706 10706 10707 10707 10708 10708 10708 10709 10710 10711 10712 10712 10714 10715 10715 10716 10717 10718 10719 10721 10723 10724 10724 10725 10726 10726 10727
10606 10607 10607 10607 10608 10609 10610 10610 10612 10613 10614 10616 10618 10619 10620 10621 10623 10625 10628 10632 10635 10637 10639 10640 10641 10643 10645 10647 10649 10652 10655 10657 10659 10661 10663 10664 10665 10667 10669 10671 10674 10676 10677 10679 10681 10683 10685 10687 10689 10690 10691 10693 10694 10695 10697 10699 10700 10702 10702 10703 10704 10704 10704 10704 10705 10705 10706 10707 10708 10708 10710 10711 10711 10711 10712 10713 10715 10716 10717 10719 10720 10720 10721 10722 10722
10602 10602 10603 10604 10604 10605 10606 10606 10607 10608 10609 10611 10613 10614 10616 10617 10618 10620 10623 10626 10629 10632 10635 10636 10637 10638 10641 10643 10644 10647 10649 10652 10654 10656 10658 10660 10661 10662 10664 10666 10668 10670 10672 10674 10675 10678 10680 10682 10684 10686 10687 10688 10690 10691 10693 10695 10696 10698 10699 10699 10700 10701 10701 10701 10702 10702 10703 10703 10704 10704 10705 10707 10707 10708 10708 10709 10710 10711 10712 10713 10715 10716 10716 10716 10717
10597 10598 10599 10600 10600 10601 10602 10603 10603 10604 10605 10606 10608 10609 10611 10613 10614 10616 10618 10621 10623 10626 10629 10632 10633 10634 10636 10639 10641 10642 10644 10646 10649 10651 10653 10655 10657 10658 10659 10661 10663 10665 10667 10668 10670 10673 10675 10677 10679 10681 10682 10684 10685 10687 10689 10690 10692 10694 10695 10695 10696 10697 10698 10698 10698 10699 10699 10700 10700 10701 10701 10702 10704 10704 10705 10705 10706 10707 10708 10708 10710 10711 10711 10711 10712
10593 10594 10595 10595 10596 10597 10598 10599 10600 10601 10601 10602 10604 10605 10607 10608 10610 10612 10613 10616 10618 10620 10623 10626 10628 10630 10631 10634 10636 10639 10639 10640 10643 10646 10648 10650 10652 10654 10655 10656 10658 10660 10662 10663 10665 10667 10670 10672 10673 10675 10677 10679 10680 10682 10684 10685 10687 10688 10689 10690 10692 10693 10694 10694 10695 10695 10696 10696 10696 10697 10697 10698 10699 10700 10702 10702 10703 10704 10704 10704 10704 10705 10706 10706 10707
10588 10589 10590 10591 10591 10592 10593 10595 10596 10597 10598 10599 10600 10601 10603 10604 10606 10608 10609 10611 10613 10615 10617 10619 10622 10624 10626 10628 10630 10633 10635 10636 10637 10640 10643 10645 10646 10648 10650 10651 10652 10654 10656 10657 10659 10661 10664 10666 10667 10669 10671 10672 10674 10676 10678 10680 10682 10683 10684 10685 10686 10688 10689 10690 10690 10691 10691 10692 10692 10693 10693 10694 10695 10696 10697 10698 10700 10700 10700 10700 10700 10700 10700 10701 10701
10583 10584 10585 10586 10586 10587 10588 10590 10591 10592 10593 10594 10596 10597 10599 10601 10602 10604 10605 10607 10608 10609 10611 10613 10615 10617 10619 10622 10625 10627 10630 10632 10633 10634 10637 10640 10641 10642 10644 10646 10647 10648 10649 10651 10652 10655 10657 10659 10661 10663 10664 10666 10667 10670 10672 10673 10676 10678 10678 10678 10681 10683 10684 10685 10685 10685 10686 10687 10688 10688 10689 10690 10690 10691 10692 10694 10695 10696 10696 10696 10696 10695 10695 10695 10695
10577 10579 10580 10580 10581 10582 10583 10585 10586 10587 10588 10589 10591 10593 10594 10596 10598 10600 10601 10603 10604 10605 10606 10608 10609 10611 10613 10615 10618 10621 10623 10626 10628 10629 10630 10633 10635 10636 10638 10639 10640 10641 10643 10644 10646 10647 10649 10652 10654 10656 10658 10659 10661 10663 10665 10667 10670 10672 10671 10671 10674 10677 10678 10679 10679 10679 10680 10682 10683 10684 10685 10685 10686 10686 10687 10689 10690 10691 10692 10692 10692 10691 10690 10690 10690
10571 10572 10574 10575 10576 10577 10578 10579 10581 10582 10583 10584 10586 10587 10589 10591 10593 10595 10597 10598 10599 10600 10602 10603 10604 10606 10607 10608 10610 10613 10616 10619 10621 10622 10624 10625 10627 10629 10630 10632 10633 10634 10636 10638 10641 10642 10643 10645 10647 10649 10651 10652 10654 10656 10657 10660 10664 10665 10664 10665 10668 10671 10672 10673 10673 10674 10675 10676 10677 10678 10680 10681 10681 10681 10682 10683 10684 10685 10686 10687 10687 10686 10685 10685 10685
10565 10566 10568 10569 10570 10572 10573 10574 10575 10576 10578 10579 10580 10581 10583 10585 10587 10589 10591 10592 10594 10595 10597 10598 10599 10600 10602 10603 10605 10607 10609 10612 10614 10616 10617 10619 10620 10621 10623 10624 10626 10627 10629 10631 10634 10637 10638 10639 10641 10642 10643 10645 10647 10649 10651 10654 10657 10656 10657 10660 10662 10664 10666 10666 10667 10668 10669 10670 10671 10673 10674 10675 10676 10676 10676 10677 10678 10679 10680 10681 10682 10681 10680 10680 10680
10559 10560 10562 10563 10565 10566 10568 10569 10570 10571 10572 10573 10574 10575 10577 10579 10580 10582 10584 10586 10587 10589 10590 10592 10593 10595 10596 10598 10599 10601 10603 10605 10607 10609 10611 10612 10614 10615 10616 10617 10618 10620 10621 10624 10627 10630 10632 10633 10635 10636 10636 10637 10639 10642 10644 10647 10649 10649 10651 10653 10655 10657 10659 10660 10661 10662 10663 10664 10665 10667 10668 10669 10670 10671 10671 10671 10672 10672 10673 10674 10675 10675 10675 10675 10675
10552 10553 10555 10556 10558 10560 10562 10563 10564 10565 10565 10566 10567 10568 10570 10572 10574 10575 10577 10578 10580 10581 10583 10585 10587 10588 10590 10591 10593 10595 10597 10599 10601 10603 10604 10606 10607 10609 10610 10610 10611 10612 10614 10616 10619 10623 10624 10626 10629 10630 10631 10631 10633 10635 10637 10639 10641 10642 10644 10646 10648 10649 10651 10652 10654 10656 10657 10659 10659 10660 10661 10663 10664 10664 10665 10666 10665 10665 10666 10668 10668 10669 10669 10670 10669
10544 10545 10546 10548 10550 10552 10554 10556 10557 10558 10558 10559 10560 10561 10563 10565 10567 10568 10569 10571 10572 10574 10576 10578 10579 10581 10583 10584 10586 10588 10590 10592 10594 10596 10598 10599 10600 10602 10603 10604 10605 10605 10606 10608 10610 10615 10617 10618 10620 10622 10624 10625 10627 10629 10631 10632 10633 10634 10636 10639 10640 10641 10643 10644 10646 10648 10650 10651 10652 10653 10654 10655 10657 10658 10659 10659 10659 10659 10659 10661 10661 10662 10663 10664 10664
10535 10536 10538 10539 10541 10543 10545 10547 10549 10550 10551 10551 10552 10554 10556 10558 10560 10561 10562 10563 10565 10567 10568 10570 10572 10573 10575 10577 10578 10580 10582 10584 10586 10588 10590 10592 10593 10595 10596 10597 10598 10598 10598 10600 10602 10605 10609 10611 10613 10614 10616 10617 10619 10622 10625 10625 10626 10627 10628 10631 10632 10634 10635 10636 10637 10640 10642 10643 10644 10646 10647 10648 10649 10650 10652 10652 10652 10652 10652 10653 10654 10655 10656 10657 10659
10526 10528 10529 10531 10532 10535 10537 10539 10540 10541 10542 10543 10544 10546 10548 10550 10551 10552 10554 10556 10558 10559 10561 10562 10563 10565 10567 10568 10570 10572 10574 10576 10578 10580 10582 10584 10585 10587 10588 10589 10591 10591 10591 10592 10594 10596 10599 10602 10604 10606 10608 10609 10611 10614 10616 10617 10618 10621 10622 10624 10626 10627 10628 10628 10629 10632 10634 10634 10636 10638 10639 10641 10642 10643 10644 10645 10645 10645 10645 10646 10647 10647 10648 10650 10653
10517 10518 10520 10522 10524 10526 10528 10530 10532 10532 10533 10533 10535 10537 10539 10541 10542 10543 10545 10547 10549 10551 10552 10554 10555 10556 10558 10559 10561 10563 10565 10567 10569 10571 10573 10575 10577 10578 10580 10582 10583 10583 10583 10584 10585 10587 10590 10592 10595 10597 10599 10600 10602 10605 10607 10609 10610 10612 10614 10616 10619 10620 10621 10621 10621 10623 10625 10625 10627 10630 10631 10633 10635 10636 10637 10637 10637 10637 10638 10639 10640 10641 10641 10643 10645
10507 10510 10512 10513 10515 10517 10519 10521 10522 10523 10523 10523 10526 10528 10530 10532 10533 10534 10536 10538 10539 10541 10543 10544 10546 10548 10549 10551 10552 10554 10556 10558 10560 10562 10564 10566 10568 10569 10571 10573 10575 10576 10576 10576 10577 10579 10581 10583 10585 10588 10590 10591 10592 10594 10597 10599 10601 10603 10605 10607 10610 10611 10612 10613 10613 10615 10617 10615 10616 10620 10622 10624 10626 10627 10628 10629 10630 10630 10630 10630 10632 10633 10633 10635 10636
10499 10501 10503 10505 10507 10509 10510 10512 10512 10512 10513 10514 10516 10519 10521 10523 10524 10525 10527 10529 10530 10532 10533 10535 10537 10539 10541 10543 10544 10546 10547 10549 10551 10553 10555 10557 10559 10561 10563 10565 10567 10568 10568 10569 10570 10571 10573 10574 10576 10578 10580 10581 10583 10583 10586 10589 10591 10592 10595 10597 10599 10600 10601 10603 10604 10607 10608 10607 10607 10610 10612 10614 10617 10617 10618 10620 10621 10622 10623 10623 10624 10625 10625 10626 10627
10488 10490 10493 10497 10499 10500 10501 10501 10501 10501 10503 10504 10507 10509 10512 10514 10515 10517 10519 10521 10522 10524 10525 10527 10529 10530 10532 10534 10536 10538 10539 10541 10543 10544 10546 10548 10550 10552 10554 10557 10558 10560 10561 10561 10562 10563 10564 10566 10568 10570 10570 10571 10572 10573 10574 10578 10581 10582 10584 10586 10588 10589 10591 10593 10594 10596 10597 10599 10600 10603 10604 10604 10606 10607 10608 10609 10610 10612 10614 10615 10617 10618 10618 10618 10618
10476 10479 10485 10489 10488 10488 10488 10487 10488 10490 10492 10494 10496 10499 10502 10504 10506 10509 10510 10512 10514 10515 10517 10519 10520 10522 10523 10525 10527 10528 10530 10532 10534 10536 10538 10540 10542 10544 10546 10549 10551 10552 10553 10554 10554 10555 10556 10557 10559 10561 10562 10563 10562 10562 10563 10567 10570 10571 10573 10575 10577 10577 10579 10581 10583 10584 10586 10589 10592 10594 10595 10594 10595 10597 10598 10599 10600 10602 10603 10605 10608 10610 10611 10611 10611
10466 10471 10476 10479 10478 10478 10476 10476 10478 10480 10481 10483 10485 10487 10491 10494 10497 10499 10500 10502 10503 10505 10508 10509 10511 10512 10514 10515 10517 10518 10520 10523 10525 10527 10530 10532 10534 10536 10538 10541 10543 10544 10545 10546 10546 10546 10547 10548 10549 10550 10552 10553 10552 10552 10553 10556 10559 10560 10561 10563 10565 10565 10566 10568 10570 10571 10574 10578 10581 10582 10583 10584 10584 10586 10587 10589 10591 10593 10593 10595 10597 10599 10602 10604 10604
10457 10462 10467 10470 10471 10469 10464 10463 10467 10469 10470 10472 10473 10475 10479 10482 10486 10489 10490 10491 10493 10495 10497 10499 10500 10502 10503 10505 10507 10508 10510 10513 10516 10518 10521 10523 10525 10527 10529 10531 10534 10535 10536 10537 10538 10538 10539 10539 10539 10540 10542 10543 10542 10542 10543 10545 10547 10549 10550 10551 10553 10554 10554 10556 10558 10558 10560 10564 10568 10569 10570 10572 10573 10573 10575 10579 10582 10583 10584 10586 10587 10588 10591 10594 10596
10448 10452 10456 10459 10461 10458 10451 10451 10457 10459 10460 10461 10461 10463 10466 10469 10473 10477 10480 10481 10482 10484 10487 10488 10490 10492 10493 10495 10496 10498 10500 10503 10506 10508 10510 10513 10515 10517 10519 10521 10523 10525 10527 10528 10529 10529 10530 10531 10530 10530 10531 10531 10531 10532 10533 10534 10535 10538 10540 10540 10541 10542 10543 10545 10546 10546 10547 10550 10553 10554 10556 10559 10562 10563 10564 10567 10571 10572 10574 10576 10577 10577 10580 10583 10585
10438 10442 10446 10448 10448 10446 10443 10444 10447 10448 10448 10448 10448 10450 10452 10455 10460 10466 10468 10469 10471 10473 10475 10477 10479 10481 10482 10484 10485 10488 10490 10493 10495 10497 10499 10502 10504 10506 10508 10510 10512 10514 10516 10517 10519 10519 10520 10521 10521 10520 10520 10520 10521 10522 10523 10524 10524 10526 10528 10530 10530 10530 10532 10535 10536 10534 10535 10538 10539 10539 10542 10547 10550 10552 10553 10555 10559 10562 10563 10564 10566 10567 10569 10571 10573
10426 10430 10434 10437 10437 10435 10435 10437 10438 10436 10434 10435 10435 10436 10439 10444 10451 10455 10455 10456 10458 10460 10463 10465 10466 10468 10470 10472 10474 10478 10480 10482 10484 10486 10488 10490 10493 10495 10497 10498 10500 10503 10505 10507 10508 10508 10509 10511 10511 10510 10509 10510 10512 10513 10513 10513 10514 10514 10516 10518 10520 10520 10521 10522 10524 10524 10524 10526 10527 10527 10530 10534 10535 10539 10543 10542 10546 10552 10553 10551 10553 10556 10559 10561 10563
10414 10417 10422 10425 10426 10424 10425 10427 10428 10424 10423 10423 10423 10424 10429 10437 10442 10443 10443 10444 10445 10447 10449 10451 10452 10455 10458 10460 10463 10466 10469 10471 10473 10474 10476 10479 10482 10484 10485 10487 10488 10490 10493 10495 10496 10497 10498 10499 10500 10500 10499 10500 10502 10502 10501 10502 10503 10504 10504 10505 10507 10509 10511 10512 10513 10513 10512 10514 10515 10516 10521 10521 10519 10525 10531 10530 10534 10541 10541 10538 10540 10545 10548 10550 10552
10402 10405 10408 10411 10413 10413 10415 10416 10416 10413 10411 10411 10412 10416 10423 10429 10430 10430 10430 10431 10432 10434 10436 10437 10438 10441 10445 10447 10450 10453 10457 10459 10461 10463 10465 10468 10471 10473 10474 10475 10477 10479 10481 10482 10483 10484 10485 10486 10488 10490 10490 10490 10490 10490 10490 10491 10492 10493 10493 10493 10494 10496 10500 10501 10502 10502 10502 10502 10502 10505 10510 10511 10507 10510 10516 10516 10522 10529 10528 10527 10530 10533 10536 10539 10541
10391 10393 10395 10398 10399 10401 10403 10404 10404 10403 10402 10401 10404 10409 10415 10417 10416 10415 10416 10417 10419 10421 10421 10422 10424 10428 10431 10433 10435 10440 10444 10446 10448 10451 10453 10456 10459 10461 10462 10464 10465 10467 10469 10469 10469 10470 10471 10474 10477 10479 10479 10478 10478 10478 10479 10479 10481 10481 10481 10482 10482 10483 10486 10488 10490 10492 10492 10491 10490 10491 10498 10501 10496 10496 10498 10500 10509 10516 10515 10517 10520 10520 10523 10529 10530
10379 10380 10383 10385 10386 10388 10389 10391 10392 10392 10392 10391 10394 10400 10404 10403 10403 10403 10403 10404 10406 10407 10407 10409 10411 10414 10417 10419 10421 10425 10430 10433 10435 10437 10439 10443 10446 10449 10450 10452 10453 10455 10456 10455 10455 10457 10459 10463 10466 10466 10466 10466 10466 10466 10466 10466 10467 10467 10468 10470 10469 10468 10472 10476 10478 10480 10480 10480 10479 10478 10484 10489 10485 10482 10483 10485 10494 10501 10502 10507 10510 10507 10511 10518 10518
10367 10367 10369 10372 10373 10374 10376 10379 10379 10378 10378 10380 10384 10390 10393 10392 10392 10392 10392 10392 10393 10393 10394 10397 10399 10401 10403 10405 10406 10410 10415 10418 10420 10423 10425 10429 10433 10436 10437 10439 10440 10441 10441 10441 10442 10445 10448 10450 10452 10452 10453 10453 10453 10454 10454 10454 10453 10452 10454 10457 10455 10454 10459 10463 10465 10466 10466 10468 10467 10464 10467 10474 10473 10470 10469 10471 10477 10485 10489 10494 10498 10497 10499 10503 10505
10355 10355 10356 10358 10359 10360 10363 10366 10366 10366 10367 10370 10373 10377 10379 10379 10380 10380 10379 10379 10380 10381 10383 10385 10386 10387 10389 10390 10392 10395 10399 10402 10405 10407 10410 10414 10418 10421 10423 10425 10426 10427 10426 10427 10430 10433 10435 10436 10437 10438 10439 10439 10440 10441 10441 10440 10439 10437 10438 10441 10441 10442 10446 10447 10448 10451 10453 10455 10453 10449 10452 10457 10457 10457 10457 10457 10462 10471 10476 10480 10483 10485 10486 10489 10492